Palmdale, CA

11:42 PM PST on December 17, 2017 (GMT -0800)
Palmdale Af Plant 42

Weather History for KPMD - August, 2013

Change the Weather History Date:

Monday, August 5, 2013

  Actual Average Record
Temperature  
Mean Temperature 80 °F 83 °F  
Max Temperature 96 °F 99 °F 110 °F (1998)
Min Temperature 64 °F 67 °F 48 °F (1956)
Degree Days  
Heating Degree Days 0 0  
Month to date heating degree days 0 0  
Since 1 June heating degree days 0 7  
Since 1 July heating degree days 0 0  
Cooling Degree Days 15 18  
Month to date cooling degree days 69 90  
Year to date cooling degree days 1334 1068  
Since 1 June cooling degree days 1103 898  
Growing Degree Days 30 (Base 50)    
Moisture  
Dew Point 13 °F    
Average Humidity 14    
Maximum Humidity 26    
Minimum Humidity 1    
Precipitation  
Precipitation 0.00 in 0.00 in 0.24 in (1974)
Month to date precipitation 0.00 0.01  
Year to date precipitation 0.95 5.43  
Since 1 July precipitation 0.09  
Snow  
Snow 0.00 in - 0.00 in (1973)
Month to date snowfall 0.0  
Since 1 June snowfall 0.0  
Since 1 July snowfall 0.0  
Snow Depth 0.00 in    
Sea Level Pressure  
Sea Level Pressure 29.90 in    
Wind  
Wind Speed 11 mph (WSW)    
Max Wind Speed 26 mph    
Max Gust Speed 31 mph    
Visibility 10 miles    
Events      
T = Trace of Precipitation, MM = Missing Value Source: NWS Daily Summary

Daily Weather History Graph

Daily Weather History Graph

Search for Another Location

Airport or City:

Trip Planner

Search our weather history database for the weather conditions in past years. The results will help you decide how hot, cold, wet, or windy it might be!

Date:

Astronomy

Aug. 05, 2013 Rise Set
Actual Time 6:05 AM PDT 7:50 PM PDT
Civil Twilight 5:38 AM PDT 8:17 PM PDT
Nautical Twilight 5:05 AM PDT 8:50 PM PDT
Astronomical Twilight 4:30 AM PDT 9:25 PM PDT
Moon 5:04 AM PDT (8/5) 6:55 PM PDT (8/5)
Length of Visible Light 14h 39m
Length of Day
13h 44m
Waning Crescent, 1% of the Moon is Illuminated
Aug 5
Waning Crescent
Aug 6
New
Aug 14
First Quarter
Aug 20
Full
Aug 28
Last Quarter

Hourly Weather History & Observations

Time (PDT) Temp. Dew Point Humidity Pressure Visibility Wind Dir Wind Speed Gust Speed Precip Events Conditions
12:53 AM 73.9 °F 10.9 °F 9% 29.91 in 10.0 mi Variable 3.5 mph - N/A   Clear
1:53 AM 69.1 °F 9.0 °F 10% 29.91 in 10.0 mi West 10.4 mph - N/A   Clear
2:53 AM 72.0 °F 23.0 °F 16% 29.90 in 10.0 mi SW 11.5 mph - N/A   Clear
3:53 AM 71.1 °F 24.1 °F 17% 29.90 in 10.0 mi SSW 8.1 mph - N/A   Clear
4:53 AM 69.1 °F 28.9 °F 22% 29.91 in 10.0 mi SSW 8.1 mph - N/A   Clear
5:53 AM 64.9 °F 28.9 °F 26% 29.92 in 10.0 mi West 3.5 mph - N/A   Clear
6:53 AM 68.0 °F 30.0 °F 24% 29.94 in 10.0 mi SSW 5.8 mph - N/A   Clear
7:53 AM 75.9 °F 28.0 °F 17% 29.94 in 10.0 mi South 3.5 mph - N/A   Clear
8:53 AM 80.1 °F 16.0 °F 9% 29.94 in 10.0 mi Calm Calm - N/A   Clear
9:53 AM 84.9 °F 9.0 °F 6% 29.94 in 10.0 mi Calm Calm - N/A   Clear
10:53 AM 90.0 °F -18.9 °F 4% 29.93 in 10.0 mi West 9.2 mph - N/A   Clear
11:53 AM 91.9 °F -24.0 °F 4% 29.92 in 10.0 mi SW 10.4 mph 18.4 mph N/A   Clear
12:53 PM 95.0 °F -20.0 °F 4% 29.90 in 10.0 mi WSW 17.3 mph - N/A   Clear
1:53 PM 95.0 °F 1.0 °F 4% 29.89 in 10.0 mi WSW 16.1 mph - N/A   Clear
2:53 PM 95.0 °F 3.0 °F 4% 29.87 in 10.0 mi SW 21.9 mph 31.1 mph N/A   Clear
3:53 PM 95.0 °F 6.1 °F 4% 29.86 in 10.0 mi WSW 23.0 mph 28.8 mph N/A   Clear
4:53 PM 93.0 °F 12.0 °F 5% 29.85 in 10.0 mi SW 23.0 mph 27.6 mph N/A   Clear
5:53 PM 90.0 °F 21.0 °F 8% 29.85 in 10.0 mi SW 21.9 mph - N/A   Clear
6:53 PM 87.1 °F 28.0 °F 12% 29.86 in 10.0 mi WSW 15.0 mph - N/A   Clear
7:53 PM 82.9 °F 21.9 °F 11% 29.87 in 10.0 mi WSW 16.1 mph 24.2 mph N/A   Clear
8:53 PM 79.0 °F 21.9 °F 12% 29.89 in 10.0 mi WNW 6.9 mph - N/A   Clear
9:53 PM 75.9 °F 23.0 °F 14% 29.91 in 10.0 mi West 3.5 mph - N/A   Clear
10:53 PM 72.0 °F 19.9 °F 14% 29.90 in 10.0 mi WSW 9.2 mph - N/A   Clear
11:53 PM 75.9 °F 17.1 °F 11% 29.90 in 10.0 mi WSW 5.8 mph - N/A   Clear